Regional Weather Roundup
Issued by NWS

Home | Current Version | Previous Version | Graphics & Text | Print | Product List | Glossary On
Versions: 1 2 3 4 5 6 7 8 9 10 11 12 13 14 15 16 17 18 19 20 21 22 23 24 25 26 27 28 29 30 31 32 33 34 35 36 37 38 39 40 41 42 43 44 45 46 47 48 49 50
000
ASUS43 KLSX 161459
RWRMO

WEATHER SUMMARY FOR MISSOURI
NATIONAL WEATHER SERVICE SPRINGFIELD MO
1000 AM CDT WED APR 16 2014

NOTE: "FAIR" INDICATES FEW OR NO CLOUDS BELOW 12,000 FEET WITH NO
       SIGNIFICANT WEATHER AND/OR OBSTRUCTIONS TO VISIBILITY.
       CURRENT SKY AND/OR WEATHER CONDITIONS ARE NOT AVAILABLE FOR
       CHILLICOTHE AND FARMINGTON.

MOZ001>031-035>038-043-044-053-054-161600-
...NORTHERN AND WESTERN MISSOURI...

CITY           SKY/WX    TMP DP  RH WIND       PRES   REMARKS
KANSAS CTY INT PTSUNNY   55  28  35 S28G37    29.92F
KANSAS C DTWN  SUNNY     54  29  38 S20G29    29.95F
LEE`S SUMMIT   MOSUNNY   52  30  43 S17G31    29.97S
ST JOSEPH      MOSUNNY   56  27  32 S24G33    29.90F
KIRKSVILLE     MOSUNNY   51  28  41 S21       30.06S

$$
MOZ066>068-077>081-088>096-101>105-161600-
...SOUTHWEST MISSOURI...

CITY           SKY/WX    TMP DP  RH WIND       PRES   REMARKS
SPRINGFIELD    MOSUNNY   48  32  53 SE24G35   30.10S
JOPLIN         PTSUNNY   52  30  43 S22G29    30.06R

$$
MOZ032>034-039>042-045>050-055>058-069>072-161600-
...CENTRAL MISSOURI...

CITY           SKY/WX    TMP DP  RH WIND       PRES   REMARKS
COLUMBIA       SUNNY     50  30  46 S23G29    30.12S
JEFFERSON CITY MOSUNNY   49  29  46 S17       30.14F
ROLLA          MOSUNNY   46  27  47 S18G28    30.16S
SEDALIA        SUNNY     53  30  41 S22       30.06F
OSAGE BEACH    MOSUNNY   48  28  46 S12G22    30.15S

$$
MOZ051-052-059>065-161600-
...EAST CENTRAL MISSOURI...

CITY           SKY/WX    TMP DP  RH WIND       PRES   REMARKS
ST LOUIS INTL  PTSUNNY   48  24  39 S16G26    30.25S
SPIRIT OF STL  MOSUNNY   46  24  42 S13G22    30.23S
ST CHARLES     SUNNY     46  28  49 S21G28    30.24S

$$
MOZ072>076-082>087-097>100-106>115-161600-
...SOUTH CENTRAL AND SOUTHEAST MISSOURI...

CITY           SKY/WX    TMP DP  RH WIND       PRES   REMARKS
CAPE GIRARDEAU SUNNY     46  29  51 SE13      30.33R
FARMINGTON     MOSUNNY   45  25  45 S16G23    30.28S
POPLAR BLUFF   SUNNY     46  28  49 SE10      30.31R
WEST PLAINS    SUNNY     43  24  47 S18G26    30.23R

$$



USA.gov is the U.S. government's official web portal to all federal, state and local government web resources and services.